0 HST 1 20580U 90037B 25293.28394481 .00012652 00000-0 45494-3 0 9999 2 20580 28.4689 276.0595 0002050 6.7972 353.2650 15.27030500751815 0 ISS (ZARYA) 1 25544U 98067A 25293.78246337 .00016075 00000-0 29626-3 0 9998 2 25544 51.6343 44.6559 0004365 316.7773 43.2873 15.49292312534646 0 CXO 1 25867U 99040B 25296.37207216 .00000767 00000-0 00000-0 0 9992 2 25867 52.0490 124.4132 8221787 310.6302 0.1667 0.37807083 16426